Regional Weather Roundup
Issued by NWS Huntsville, AL

Home | Current Version | Previous Version | Text Only | Print | Product List | Glossary On
Versions: 1 2 3 4 5 6 7 8 9 10 11 12 13 14 15 16 17 18 19 20 21 22 23 24 25 26 27 28 29 30 31 32 33 34 35 36 37 38 39 40 41 42 43 44 45 46 47 48 49 50
000
ASUS44 KHUN 261310
RWRHUN

WEATHER ROUNDUP FOR THE TENNESSEE VALLEY
NATIONAL WEATHER SERVICE HUNTSVILLE AL
700 AM CST WED NOV 26 2014

ALZ001>004-261400-
NORTHWEST ALABAMA

CITY           SKY/WX    TMP DP  RH WIND       PRES   REMARKS
SHOALS AIRPORT CLEAR     27  23  85 CALM      30.17R
$$

ALZ005>007-016-261400-
NORTH CENTRAL ALABAMA

CITY           SKY/WX    TMP DP  RH WIND       PRES   REMARKS
DECATUR AP     CLEAR     30  26  85 CALM      30.15R
HUNTSVILLE AP  PTCLDY    32  27  81 CALM      30.14R
HUN NWS/UAH      N/A     32  25  74 NW3         N/A
MERIDIANVILLE  CLEAR     30  23  74 CALM      30.14R
REDSTONE ARSN  CLEAR     31  27  84 E2        30.14R
VINEMONT AP    FAIR      29  26  88 CALM      30.14S
$$

ALZ008>010-261400-
NORTHEAST ALABAMA

CITY           SKY/WX    TMP DP  RH WIND       PRES   REMARKS
ALBERTVILLE    CLEAR     32  32 100 W3        30.10R
FORT PAYNE     CLEAR     32  27  80 CALM      30.10R
SCOTTSBORO AP  CLEAR     32  27  80 CALM      30.13R
VALLEY HEAD      N/A     30 N/A N/A MISG        N/A
$$

TNZ076-096-097-261400-
SOUTHEASTERN MIDDLE TENNESSEE

CITY           SKY/WX    TMP DP  RH WIND       PRES   REMARKS
TULLAHOMA      CLEAR     27  23  86 W3        30.12R
WINCHESTER     CLEAR     27  25  93 CALM      30.12R
$$

...SURROUNDING SITES...

CITY           SKY/WX    TMP DP  RH WIND       PRES   REMARKS
ATLANTA        PTCLDY    43  32  65 NW12      30.04R
ANNISTON       CLEAR     36  28  73 SW10      30.13R WCI  28
BIRMINGHAM     CLEAR     34  28  79 E3        30.16R
CHATTANOOGA    PTCLDY    40  28  62 W7        30.10R
CORINTH        FAIR      25  23  93 CALM      30.15S
DALTON         CLEAR     36  32  87 NW3       30.07R
GADSDEN        CLEAR     36  25  64 CALM      30.13R
GOLDEN TRNGL   CLEAR     27  23  86 CALM      30.17R
HALEYVILLE     FAIR      25  25 100 CALM      30.16R
JACKSON TN     PTCLDY    24  22  91 CALM      30.14F
LEWISBURG      FAIR      24  21  88 CALM      30.14R
MEMPHIS        PTCLDY    32  25  75 S3        30.14S
MURFREESBORO   FAIR      29  26  88 CALM      30.14R
NASHVILLE      PTCLDY    29  27  92 CALM      30.14S
OXFORD MS      FAIR      28  25  86 SE3       30.17S
ROME           CLEAR     39  31  72 W5        30.08R
SAVANNAH       CLEAR     21  21 100 CALM      30.16R
TUPELO         CLEAR     29  26  89 CALM      30.16S
TUSCALOOSA     CLEAR     30  27  88 CALM      30.19R
$$

...GULF COAST WEATHER...

CITY           SKY/WX    TMP DP  RH WIND       PRES   REMARKS
GULFPORT       CLEAR     34  31  88 CALM      30.23S
PASCAGOULA     CLEAR     30  28  92 CALM      30.24R
MOBILE         CLEAR     34  29  82 NW3       30.23R
GULF SHORES    SUNNY     37  32  81 CALM      30.23R
PENSACOLA      PTCLDY    41  32  70 N9        30.22R
DESTIN         CLEAR     44  32  62 NW12      30.19R
APPALACHICOLA  CLEAR     48  41  76 NW9       30.14R
$$




USA.gov is the U.S. government's official web portal to all federal, state and local government web resources and services.